Theta_e
347 347 353 354 354 344 357 355 350 353 355 352 351 354 355 352 351 354 345 346 346 348 349 351 351 352 352 350 348 349 350 345 341 339 338 338 338 339 340 341 342 341 339 340 341 342 344 344 344
345 349 354 353 340 346 348 351 355 351 352 352 353 353 355 357 348 349 349 347 346 348 349 351 352 352 345 345 346 346 350 346 340 339 340 339 340 341 344 344 342 340 341 343 345 345 343 344 343
344 351 354 356 338 348 352 350 351 351 353 354 354 352 354 354 349 350 347 348 349 350 351 351 350 349 348 346 344 340 342 341 338 337 337 337 339 342 344 344 340 340 343 345 345 343 343 343 344
347 345 346 337 337 340 353 349 347 351 350 354 354 358 353 351 350 350 346 349 349 351 351 351 348 351 347 345 342 338 337 336 335 335 337 339 341 345 346 343 342 344 345 344 344 343 344 344 345
345 341 340 335 336 352 351 347 347 350 356 356 355 358 356 353 351 349 350 348 348 350 350 349 349 348 347 344 341 344 345 346 342 343 344 342 343 352 349 349 350 347 345 345 345 345 345 344 345
339 338 342 347 344 352 351 348 349 358 358 356 356 357 356 353 351 352 351 346 347 349 349 351 350 350 346 349 347 345 345 344 344 344 344 346 350 352 352 351 348 345 348 351 347 348 347 346 348
341 342 347 345 343 353 351 351 359 358 356 356 353 358 356 354 353 353 350 346 346 348 350 350 351 352 352 350 346 342 342 340 342 344 343 345 346 345 344 345 346 346 349 351 352 352 346 346 346
341 339 345 343 347 352 350 349 355 355 358 352 351 357 357 354 354 353 350 348 348 347 350 349 353 353 353 351 350 345 342 340 341 344 344 345 343 344 344 345 345 350 351 353 348 346 343 342 342
339 341 343 346 342 342 348 352 355 353 355 351 351 352 351 354 354 354 353 353 351 350 350 351 350 352 349 348 352 354 347 342 340 345 346 346 346 345 344 345 346 346 347 348 345 343 345 345 346
342 340 343 342 340 341 344 351 352 356 354 355 353 351 351 354 354 354 354 355 355 356 354 352 351 351 352 349 347 347 347 345 343 343 345 343 345 349 348 348 348 342 347 347 347 346 346 346 348
340 344 342 342 342 336 343 347 347 355 356 353 356 354 351 353 354 354 354 354 352 350 352 352 352 352 351 352 349 346 345 343 342 342 343 345 349 350 350 347 348 348 349 348 347 348 348 347 347
335 340 341 340 347 342 344 344 352 350 351 349 353 353 353 353 354 354 355 354 353 353 351 349 349 352 351 351 350 347 346 344 343 342 343 350 351 351 348 346 349 350 350 348 347 348 348 348 348
331 337 340 341 342 343 339 344 348 349 349 349 352 354 354 354 354 354 355 354 354 354 353 352 352 352 351 352 348 346 346 347 345 346 348 350 351 350 349 348 348 348 350 349 348 348 348 347 346
336 340 342 341 341 341 345 349 350 351 349 349 354 355 354 354 354 354 354 353 355 355 354 353 353 352 352 354 353 350 350 351 351 351 352 352 352 351 350 349 349 349 346 348 348 348 347 344 343
340 344 344 344 343 340 344 348 354 349 348 350 354 353 353 352 353 352 351 353 354 355 355 353 353 353 352 354 354 352 353 352 352 353 352 351 351 351 350 349 348 347 347 346 345 345 344 345 344
340 337 348 345 345 346 346 355 353 349 348 349 349 350 351 350 348 348 350 352 353 353 353 353 355 353 352 353 354 352 352 352 352 352 352 352 351 350 349 348 347 347 346 346 346 345 344 342 341
329 346 342 345 342 347 349 352 351 349 348 349 349 348 348 346 346 347 349 351 352 352 353 354 355 353 353 354 354 352 351 351 352 352 351 351 349 348 348 347 347 345 345 346 345 344 343 341 340
341 337 346 348 347 344 350 350 352 350 349 350 349 348 348 347 345 347 349 349 350 351 354 354 353 353 352 352 352 353 353 353 353 351 351 350 349 348 348 349 347 345 344 343 344 343 343 343 342
329 335 345 344 340 349 350 351 350 349 348 349 349 348 348 347 344 346 349 349 348 348 351 352 352 352 352 353 354 355 354 355 354 353 352 351 351 350 349 347 343 343 344 343 342 342 342 342 341
326 331 338 337 342 347 350 353 348 347 348 347 347 346 346 346 344 345 347 348 348 348 349 352 352 351 352 353 354 354 354 353 351 351 351 351 350 347 346 343 343 344 342 341 341 340 341 341 342
326 328 332 338 339 348 351 353 352 350 348 346 346 346 346 346 346 345 345 346 348 347 347 348 350 349 351 354 354 354 353 354 352 353 353 351 348 346 341 335 340 341 340 339 339 340 340 340 341
330 327 332 338 339 349 348 356 347 350 351 350 349 348 348 348 346 345 346 347 348 347 347 348 348 349 351 354 354 354 353 352 348 348 351 350 345 335 335 336 338 340 339 337 337 337 338 338 338
329 326 326 334 338 342 345 347 347 347 350 350 349 347 350 349 347 346 346 347 348 347 348 348 350 352 353 354 355 354 354 348 342 345 350 345 333 335 335 338 339 341 336 336 336 337 337 337 337
327 326 321 324 331 342 346 341 341 349 350 349 346 345 350 348 349 347 347 347 348 349 349 350 351 353 354 354 356 353 354 343 340 347 343 334 336 335 335 337 341 335 334 335 336 336 335 336 336
323 320 322 330 338 342 332 340 339 341 346 346 345 343 347 347 350 349 349 348 348 350 352 351 351 354 354 354 355 353 354 337 340 342 337 335 337 337 338 339 333 330 332 334 335 336 334 334 335
321 320 322 324 328 332 326 343 341 336 340 343 342 341 345 345 349 350 350 348 348 351 352 353 353 354 354 355 354 353 339 331 333 337 336 336 336 333 335 333 332 333 332 335 336 335 336 334 335
323 321 319 321 324 326 325 327 329 335 336 340 338 337 344 345 347 350 350 349 349 351 352 353 354 354 354 354 353 341 330 333 332 332 335 336 334 334 334 334 334 333 333 334 332 333 334 335 335
322 320 324 320 326 330 327 330 330 335 337 338 337 337 342 344 345 347 349 348 350 352 353 353 354 354 354 353 350 337 332 335 335 335 337 339 334 334 335 335 333 333 333 333 332 332 334 335 333
324 322 320 320 322 325 327 328 326 332 336 337 337 337 340 343 344 344 346 346 346 351 352 353 354 353 352 352 350 337 335 335 335 336 339 339 335 336 335 334 336 336 335 333 333 334 335 335 334
320 322 321 324 324 322 324 327 327 330 336 337 337 336 335 339 342 343 343 344 344 347 350 352 353 351 350 351 349 339 335 336 333 334 335 333 330 331 333 336 335 334 332 332 334 333 333 334 334
Wind_Speed
12 10 5 1 3 5 1 3 2 4 4 1 4 8 10 9 3 4 10 14 16 18 18 21 23 22 22 24 24 24 25 26 26 25 23 22 20 19 17 15 13 11 10 10 9 7 6 7 7
13 9 2 1 4 3 3 1 3 3 7 13 10 8 10 5 6 10 12 20 21 20 22 23 23 23 25 24 24 24 24 26 24 21 21 21 20 18 15 13 11 9 9 9 7 5 5 4 4
10 4 2 2 3 4 4 3 6 10 10 4 6 9 3 4 10 14 15 23 23 22 22 22 23 24 24 23 23 24 25 27 24 22 20 19 17 15 13 11 10 9 7 6 5 3 2 2 3
5 3 2 3 1 3 4 6 10 10 3 8 14 10 5 9 10 12 26 25 24 23 22 21 22 21 23 23 24 25 24 23 21 19 17 16 15 13 11 10 8 6 5 4 3 1 1 3 2
3 2 4 4 4 3 5 11 11 7 5 10 5 6 6 3 14 26 26 24 25 23 22 21 21 21 22 24 23 22 20 19 18 17 15 14 13 11 9 8 6 4 3 2 1 2 3 4 3
1 2 5 2 4 4 5 10 12 6 8 10 10 7 3 19 25 24 25 26 25 24 22 21 21 21 22 21 20 20 18 17 17 16 14 12 11 9 8 6 5 3 2 2 3 5 5 4 3
3 4 5 4 6 5 6 8 6 11 10 7 10 6 7 14 22 24 24 25 24 23 23 21 21 20 20 20 19 18 17 16 16 15 13 11 10 8 6 5 3 3 3 4 6 7 6 5 4
1 4 4 1 8 6 6 3 7 10 7 12 11 7 10 19 24 25 23 24 23 23 22 21 21 20 21 21 19 19 18 16 15 13 11 9 8 6 5 4 5 6 7 7 7 6 5 4 3
2 5 3 5 6 5 10 5 7 5 11 4 5 8 15 27 24 23 21 21 22 21 21 20 22 21 21 19 16 15 15 15 13 12 11 9 8 7 5 6 7 7 7 6 6 4 3 5 3
4 5 7 7 7 9 15 14 14 7 12 3 10 16 26 28 24 21 20 19 22 23 23 23 21 21 21 20 18 16 15 14 13 12 12 10 8 7 7 4 8 6 6 4 4 3 6 5 4
6 7 6 7 7 16 14 10 3 17 7 11 23 21 23 24 23 22 22 25 30 28 25 24 24 23 22 20 17 16 16 14 14 13 12 10 8 7 5 6 2 3 4 4 5 5 6 5 6
4 13 6 6 7 8 15 8 7 7 4 18 20 22 21 18 19 20 22 20 21 26 26 25 24 24 23 20 19 18 17 15 16 15 14 12 10 9 7 6 6 6 4 4 5 7 8 6 9
7 5 10 10 9 10 8 7 6 5 12 16 18 20 20 17 23 25 28 29 29 28 26 25 24 23 22 20 17 17 15 15 15 14 14 14 12 11 9 8 7 8 7 8 8 8 8 11 11
3 7 9 8 8 5 12 6 6 8 15 18 20 20 19 18 23 22 20 22 26 30 28 26 24 22 22 20 18 16 15 15 16 16 15 16 15 12 13 12 11 9 9 9 9 9 11 12 13
12 7 9 4 4 6 13 4 6 16 18 18 19 18 18 18 23 23 27 26 32 31 30 28 28 23 22 20 19 14 15 15 19 17 17 16 15 15 14 14 11 8 9 11 11 10 11 10 10
7 5 9 4 5 8 6 4 12 16 19 18 18 16 17 17 23 26 29 31 32 31 32 31 29 27 24 20 20 17 14 14 14 12 14 14 13 12 12 12 11 8 9 9 8 8 8 9 10
5 12 3 5 9 4 2 5 15 17 16 16 15 16 16 13 15 22 28 33 35 34 31 30 31 28 25 21 20 19 17 17 16 14 13 13 13 12 15 13 8 8 8 6 5 6 8 10 12
12 7 9 13 16 7 6 6 18 18 18 17 16 14 15 13 15 26 28 30 34 33 33 31 29 25 23 21 18 16 15 15 15 15 13 12 10 8 8 6 6 3 2 3 5 8 9 10 11
9 6 15 10 7 5 6 10 20 19 17 16 16 15 14 15 16 25 28 30 30 32 33 31 29 24 23 23 19 15 15 14 13 13 11 10 10 7 6 6 5 3 3 3 5 7 6 7 7
7 6 8 2 8 6 4 8 18 20 22 20 19 17 18 15 11 18 24 27 30 33 32 31 30 27 26 25 21 16 12 11 10 7 7 7 9 7 6 6 6 5 3 4 3 4 4 2 3
5 6 6 8 7 6 9 3 9 12 8 13 14 15 14 17 17 15 21 26 29 31 33 31 32 28 26 25 21 15 9 8 8 9 10 12 9 8 7 5 5 5 4 3 3 2 3 1 1
4 9 8 10 15 8 6 5 9 12 15 12 14 13 16 17 17 17 21 24 28 34 33 32 31 30 26 24 22 19 16 13 11 11 14 14 11 9 8 5 5 6 5 6 2 0 1 1 1
10 8 9 9 13 6 5 4 6 11 10 20 19 17 18 17 18 19 21 31 35 36 34 33 31 30 28 27 24 20 17 13 10 12 16 15 12 10 9 9 8 7 7 4 3 2 2 2 1
2 4 7 5 4 5 12 7 5 12 26 26 17 17 19 18 19 19 27 26 28 32 35 34 33 32 30 27 25 23 19 14 14 17 19 14 12 10 10 12 9 7 5 4 2 1 2 4 4
5 7 3 3 2 6 8 4 9 19 25 25 26 21 20 18 18 18 18 22 26 31 37 38 37 37 34 30 28 25 22 18 18 22 19 15 13 10 10 10 7 5 4 3 2 4 3 4 5
7 10 7 7 4 6 6 7 9 16 22 22 17 20 18 19 19 21 21 28 31 33 36 37 38 39 37 34 30 25 22 20 18 20 18 16 15 11 13 11 10 7 5 5 4 6 9 8 8
4 4 9 6 1 4 4 6 8 6 12 17 18 15 19 20 19 22 20 29 32 33 36 40 40 40 42 38 33 29 24 21 17 18 16 14 14 14 14 12 10 9 9 7 7 7 6 11 10
12 7 2 2 6 5 4 4 5 7 8 11 14 17 19 18 17 17 19 28 34 37 39 36 39 39 45 42 38 33 28 24 21 20 20 19 17 17 15 12 11 10 10 10 10 10 10 11 12
3 3 3 5 4 7 4 7 8 7 9 17 19 22 20 17 18 18 19 30 36 35 33 34 34 35 40 45 43 37 31 25 23 22 20 19 18 17 16 13 13 12 12 11 12 13 13 13 13
7 10 9 6 6 1 5 7 5 9 9 14 17 15 10 13 16 17 18 28 28 32 32 34 33 35 41 45 45 40 33 29 25 23 21 20 20 18 16 14 14 13 12 12 13 14 13 13 14
Wind_Direction
147 149 151 116 61 75 196 265 67 105 93 335 66 96 107 36 58 142 152 149 147 141 140 136 142 140 136 135 136 141 143 144 139 137 138 140 139 136 135 136 132 130 125 118 116 115 107 95 86
148 143 80 37 83 103 272 155 106 89 105 121 95 80 48 71 60 112 125 155 146 140 141 140 141 139 138 140 141 141 138 145 151 144 141 139 137 138 136 135 131 131 130 128 128 128 102 88 85
156 74 92 93 92 165 152 208 153 107 140 91 106 82 61 83 109 141 158 155 150 147 143 140 142 142 143 144 144 141 145 150 154 149 146 145 143 145 140 136 137 138 138 138 146 132 92 67 60
143 26 341 74 66 1 146 149 130 129 121 81 109 79 86 121 141 151 153 154 150 146 143 145 145 146 144 146 149 150 152 157 156 156 154 153 146 147 145 140 139 148 144 150 142 133 32 351 357
357 86 49 54 341 39 88 136 138 129 87 101 90 101 91 68 140 147 155 157 150 148 148 149 152 151 149 152 151 152 151 154 156 158 156 152 150 153 147 143 153 165 167 170 210 294 317 316 323
1 124 61 53 8 65 102 144 146 109 99 117 103 98 83 132 139 154 160 159 155 152 155 154 156 157 157 157 159 158 156 155 155 158 158 155 155 157 154 165 180 194 192 265 291 302 310 303 307
202 96 145 137 118 152 177 151 143 137 139 127 143 97 122 141 152 160 161 162 159 158 158 158 159 160 163 170 174 172 171 166 166 165 165 166 168 168 174 190 213 229 238 276 292 300 304 296 296
251 86 94 83 164 181 169 110 153 134 116 120 143 151 161 164 157 160 163 161 163 166 164 165 165 167 171 175 179 180 179 174 178 178 180 182 184 187 203 215 228 243 260 275 292 296 319 318 306
138 52 152 170 175 158 162 138 184 104 135 152 166 138 149 156 151 147 149 161 170 173 176 177 176 180 182 183 181 179 177 176 183 185 186 192 199 201 207 267 272 259 276 288 294 303 342 342 345
91 128 222 182 173 171 178 161 163 130 165 94 113 117 146 153 153 151 158 166 172 177 177 180 183 185 188 189 187 192 190 193 196 194 190 199 208 227 250 282 285 246 266 302 281 328 324 327 308
196 208 168 186 180 165 162 169 145 146 194 180 149 147 156 162 165 164 172 176 180 181 179 184 186 190 193 196 196 202 208 208 209 205 199 208 219 220 257 275 283 234 266 278 296 302 317 322 317
165 234 168 168 143 138 155 130 109 158 243 159 149 150 159 168 173 175 176 181 182 183 186 188 191 194 196 201 201 205 211 211 213 211 211 218 225 235 265 242 262 269 279 256 285 294 300 297 318
198 187 172 142 115 130 118 120 130 193 136 144 149 156 166 175 180 184 185 185 186 185 188 190 191 197 198 202 208 212 217 225 222 218 221 229 237 246 258 259 268 275 271 273 285 295 303 321 320
209 155 124 112 143 136 127 127 99 159 145 149 158 165 173 179 184 188 186 186 186 190 191 193 197 202 203 208 208 212 222 232 241 235 238 241 243 252 259 260 265 271 273 273 283 291 303 310 311
137 94 80 80 174 121 120 70 154 151 157 153 165 172 177 187 183 186 189 188 189 193 194 197 201 203 206 211 210 221 224 235 229 242 238 242 242 249 264 267 274 282 277 277 287 293 301 313 317
93 35 134 219 194 180 87 183 158 163 164 168 170 178 184 192 187 188 188 193 194 197 197 201 205 203 206 212 209 212 211 216 219 222 225 234 239 250 264 269 274 290 290 294 288 299 312 323 326
45 168 192 170 214 140 112 137 175 170 173 176 182 184 190 191 198 191 191 194 197 200 199 200 204 204 208 209 214 217 223 224 229 231 235 241 255 261 268 268 261 284 290 289 291 310 318 321 323
184 180 195 172 201 185 206 167 164 176 174 183 191 198 200 193 195 192 194 193 194 195 197 199 202 208 210 211 215 220 227 231 238 242 240 246 249 252 247 241 267 266 260 306 304 304 308 304 311
141 179 201 208 164 123 191 153 174 180 185 190 193 198 205 209 198 191 192 195 195 198 200 204 204 206 207 208 210 220 231 239 239 243 246 243 244 241 226 214 220 244 276 291 296 301 306 310 321
140 179 201 326 159 96 169 175 179 184 194 192 191 197 199 202 180 183 188 193 197 200 204 206 208 210 213 216 217 225 234 238 242 233 222 209 201 212 207 225 234 231 241 272 261 278 295 287 349
170 175 186 183 157 43 115 5 206 215 218 210 205 206 202 188 185 184 183 189 197 202 203 208 208 214 217 217 217 221 223 226 222 223 209 195 194 196 219 223 215 222 232 240 280 282 302 334 17
200 204 209 152 163 185 174 213 228 212 219 221 215 203 202 193 191 184 183 186 192 203 207 206 211 213 217 215 214 214 218 224 230 233 208 191 196 201 181 185 189 195 223 271 252 270 305 352 102
229 152 196 178 184 119 206 105 252 161 222 229 217 210 203 194 190 188 189 187 193 198 203 208 212 214 212 211 214 213 218 228 224 206 186 188 192 198 207 207 214 217 243 201 183 182 209 214 187
207 98 39 50 125 194 199 164 235 182 214 225 219 213 199 193 195 193 193 190 189 195 201 208 210 215 213 213 214 215 217 212 200 192 189 193 194 206 215 210 208 220 214 180 183 204 216 201 204
98 80 329 338 356 214 194 144 229 210 215 215 207 206 199 191 191 191 187 187 189 192 199 206 211 212 211 212 214 216 218 206 199 195 200 200 199 191 188 189 210 217 209 199 234 259 240 212 212
179 160 163 189 204 226 130 202 239 211 221 216 212 208 193 193 193 194 191 188 193 195 198 199 205 209 211 211 213 211 204 204 202 205 212 206 195 198 191 202 202 212 218 234 260 285 260 251 245
189 156 197 142 351 101 215 276 329 297 213 203 202 189 200 197 193 195 191 193 196 199 201 200 203 205 209 210 209 202 202 199 202 201 193 201 207 207 204 207 211 229 240 242 262 272 287 253 256
197 165 91 353 166 233 249 242 219 224 207 204 190 195 202 197 193 192 194 195 198 203 205 204 205 204 207 208 207 203 202 206 208 210 217 211 214 209 206 205 220 233 243 252 264 274 277 268 268
142 181 77 128 147 174 224 256 214 227 194 186 195 201 198 189 191 193 196 199 201 204 202 202 203 201 204 208 207 203 203 203 208 208 205 209 211 206 213 220 231 240 249 258 265 274 278 275 271
183 209 182 205 246 198 168 259 232 223 201 187 199 194 191 189 189 194 197 201 201 204 201 201 201 199 204 206 207 203 202 201 204 209 212 211 211 212 221 226 235 243 252 259 269 276 275 270 268